Time,TemperatureF,DewpointF,PressureIn,WindDirection,WindDirectionDegrees,WindSpeedMPH,WindSpeedGustMPH,Humidity,HourlyPrecipIn,Conditions,Clouds,dailyrainin,SoftwareType,DateUTC
2013-02-25 00:02:00,29.0,-99.9,-100.00,North,-999,-999.0,-999.0,-999,0.02,,,0.74,,2013-02-25 05:02:00,
2013-02-25 00:11:00,29.0,-99.9,-100.00,North,-999,-999.0,-999.0,-999,0.02,,,0.74,,2013-02-25 05:11:00,
2013-02-25 00:22:00,29.0,-99.9,-100.00,North,-999,-999.0,-999.0,-999,0.02,,,0.74,,2013-02-25 05:22:00,
2013-02-25 00:30:00,29.0,-99.9,-100.00,North,-999,-999.0,-999.0,-999,0.01,,,0.74,,2013-02-25 05:30:00,
2013-02-25 01:03:00,29.0,-99.9,-100.00,North,-999,-999.0,-999.0,-999,0.01,,,0.74,,2013-02-25 06:03:00,
2013-02-25 01:12:00,29.0,-99.9,-100.00,North,-999,-999.0,-999.0,-999,0.01,,,0.74,,2013-02-25 06:12:00,
2013-02-25 01:22:00,29.0,-99.9,-100.00,North,-999,-999.0,-999.0,-999,0.01,,,0.74,,2013-02-25 06:22:00,
2013-02-25 01:30:00,29.0,-99.9,-100.00,North,-999,-999.0,-999.0,-999,0.01,,,0.73,,2013-02-25 06:30:00,
2013-02-25 02:01:00,29.0,-99.9,-100.00,North,-999,-999.0,-999.0,-999,0.01,,,0.73,,2013-02-25 07:01:00,
2013-02-25 02:12:00,29.0,-99.9,-100.00,North,-999,-999.0,-999.0,-999,0.01,,,0.73,,2013-02-25 07:12:00,
2013-02-25 02:22:00,29.0,-99.9,-100.00,North,-999,-999.0,-999.0,-999,0.01,,,0.73,,2013-02-25 07:22:00,
2013-02-25 02:30:00,29.0,-99.9,-100.00,North,-999,-999.0,-999.0,-999,0.00,,,0.73,,2013-02-25 07:30:00,
2013-02-25 03:02:00,29.0,-99.9,-100.00,North,-999,-999.0,-999.0,-999,0.00,,,0.73,,2013-02-25 08:02:00,
2013-02-25 03:11:00,29.0,-99.9,-100.00,North,-999,-999.0,-999.0,-999,0.00,,,0.73,,2013-02-25 08:11:00,
2013-02-25 03:22:00,29.0,-99.9,-100.00,North,-999,-999.0,-999.0,-999,0.00,,,0.73,,2013-02-25 08:22:00,
2013-02-25 03:30:00,29.0,-99.9,-100.00,North,-999,-999.0,-999.0,-999,0.00,,,0.73,,2013-02-25 08:30:00,
2013-02-25 04:02:00,29.0,-99.9,-100.00,North,-999,-999.0,-999.0,-999,0.00,,,0.73,,2013-02-25 09:02:00,
2013-02-25 04:12:00,29.0,-99.9,-100.00,North,-999,-999.0,-999.0,-999,0.00,,,0.73,,2013-02-25 09:12:00,
2013-02-25 04:22:00,29.0,-99.9,-100.00,North,-999,-999.0,-999.0,-999,0.00,,,0.73,,2013-02-25 09:22:00,
2013-02-25 04:30:00,28.0,-99.9,-100.00,North,-999,-999.0,-999.0,-999,0.00,,,0.73,,2013-02-25 09:30:00,
2013-02-25 05:02:00,28.0,-99.9,-100.00,North,-999,-999.0,-999.0,-999,0.00,,,0.73,,2013-02-25 10:02:00,
2013-02-25 05:11:00,28.0,-99.9,-100.00,North,-999,-999.0,-999.0,-999,0.00,,,0.73,,2013-02-25 10:11:00,
2013-02-25 05:22:00,28.0,-99.9,-100.00,North,-999,-999.0,-999.0,-999,0.00,,,0.73,,2013-02-25 10:22:00,
2013-02-25 05:30:00,26.0,-99.9,-100.00,North,-999,-999.0,-999.0,-999,0.00,,,0.72,,2013-02-25 10:30:00,
2013-02-25 06:02:00,26.0,-99.9,-100.00,North,-999,-999.0,-999.0,-999,0.00,,,0.72,,2013-02-25 11:02:00,
2013-02-25 06:12:00,26.0,-99.9,-100.00,North,-999,-999.0,-999.0,-999,0.00,,,0.72,,2013-02-25 11:12:00,
2013-02-25 06:22:00,26.0,-99.9,-100.00,North,-999,-999.0,-999.0,-999,0.00,,,0.72,,2013-02-25 11:22:00,
2013-02-25 06:30:00,22.0,-99.9,-100.00,North,-999,-999.0,-999.0,-999,0.00,,,0.70,,2013-02-25 11:30:00,
2013-02-25 07:02:00,22.0,-99.9,-100.00,North,-999,-999.0,-999.0,-999,0.00,,,0.70,,2013-02-25 12:02:00,
2013-02-25 07:11:00,22.0,-99.9,-100.00,North,-999,-999.0,-999.0,-999,0.00,,,0.70,,2013-02-25 12:11:00,
2013-02-25 07:22:00,22.0,-99.9,-100.00,North,-999,-999.0,-999.0,-999,0.00,,,0.70,,2013-02-25 12:22:00,
2013-02-25 07:30:00,22.0,-99.9,-100.00,North,-999,-999.0,-999.0,-999,0.00,,,0.67,,2013-02-25 12:30:00,
2013-02-25 08:03:00,22.0,-99.9,-100.00,North,-999,-999.0,-999.0,-999,0.00,,,0.67,,2013-02-25 13:03:00,
2013-02-25 08:12:00,22.0,-99.9,-100.00,North,-999,-999.0,-999.0,-999,0.00,,,0.67,,2013-02-25 13:12:00,
2013-02-25 08:30:00,29.0,-99.9,-100.00,North,-999,-999.0,-999.0,-999,0.00,,,0.63,,2013-02-25 13:30:00,
2013-02-25 09:05:00,29.0,-99.9,-100.00,North,-999,-999.0,-999.0,-999,0.00,,,0.63,,2013-02-25 14:05:00,
2013-02-25 09:18:00,29.0,-99.9,-100.00,North,-999,-999.0,-999.0,-999,0.00,,,0.63,,2013-02-25 14:18:00,
2013-02-25 09:30:00,38.0,-99.9,-100.00,North,-999,-999.0,-999.0,-999,0.00,,,0.57,,2013-02-25 14:30:00,
2013-02-25 10:03:00,38.0,-99.9,-100.00,North,-999,-999.0,-999.0,-999,0.00,,,0.57,,2013-02-25 15:03:00,
2013-02-25 10:12:00,38.0,-99.9,-100.00,North,-999,-999.0,-999.0,-999,0.00,,,0.57,,2013-02-25 15:12:00,
2013-02-25 10:22:00,38.0,-99.9,-100.00,North,-999,-999.0,-999.0,-999,0.00,,,0.57,,2013-02-25 15:22:00,
2013-02-25 10:30:00,36.0,-99.9,-100.00,North,-999,-999.0,-999.0,-999,0.00,,,0.46,,2013-02-25 15:30:00,
2013-02-25 11:02:00,36.0,-99.9,-100.00,North,-999,-999.0,-999.0,-999,0.00,,,0.46,,2013-02-25 16:02:00,
2013-02-25 11:22:00,36.0,-99.9,-100.00,North,-999,-999.0,-999.0,-999,0.00,,,0.46,,2013-02-25 16:22:00,
2013-02-25 11:30:00,34.0,-99.9,-100.00,North,-999,-999.0,-999.0,-999,0.00,,,0.38,,2013-02-25 16:30:00,
2013-02-25 12:02:00,34.0,-99.9,-100.00,North,-999,-999.0,-999.0,-999,0.00,,,0.38,,2013-02-25 17:02:00,
2013-02-25 12:12:00,34.0,-99.9,-100.00,North,-999,-999.0,-999.0,-999,0.00,,,0.38,,2013-02-25 17:12:00,
2013-02-25 12:22:00,34.0,-99.9,-100.00,North,-999,-999.0,-999.0,-999,0.00,,,0.38,,2013-02-25 17:22:00,
2013-02-25 12:30:00,38.0,-99.9,-100.00,North,-999,-999.0,-999.0,-999,0.00,,,0.29,,2013-02-25 17:30:00,
2013-02-25 13:02:00,38.0,-99.9,-100.00,North,-999,-999.0,-999.0,-999,0.00,,,0.29,,2013-02-25 18:02:00,
2013-02-25 13:12:00,38.0,-99.9,-100.00,North,-999,-999.0,-999.0,-999,0.00,,,0.29,,2013-02-25 18:12:00,
2013-02-25 13:22:00,38.0,-99.9,-100.00,North,-999,-999.0,-999.0,-999,0.00,,,0.29,,2013-02-25 18:22:00,
2013-02-25 13:30:00,33.0,-99.9,-100.00,North,-999,-999.0,-999.0,-999,0.00,,,0.23,,2013-02-25 18:30:00,
2013-02-25 14:02:00,33.0,-99.9,-100.00,North,-999,-999.0,-999.0,-999,0.00,,,0.23,,2013-02-25 19:02:00,
2013-02-25 14:11:00,33.0,-99.9,-100.00,North,-999,-999.0,-999.0,-999,0.00,,,0.23,,2013-02-25 19:11:00,
2013-02-25 14:22:00,33.0,-99.9,-100.00,North,-999,-999.0,-999.0,-999,0.00,,,0.23,,2013-02-25 19:22:00,
2013-02-25 14:30:00,33.0,-99.9,-100.00,North,-999,-999.0,-999.0,-999,0.00,,,0.17,,2013-02-25 19:30:00,
2013-02-25 15:11:00,33.0,-99.9,-100.00,North,-999,-999.0,-999.0,-999,0.00,,,0.17,,2013-02-25 20:11:00,
2013-02-25 15:22:00,33.0,-99.9,-100.00,North,-999,-999.0,-999.0,-999,0.00,,,0.17,,2013-02-25 20:22:00,
2013-02-25 15:30:00,34.0,-99.9,-100.00,North,-999,-999.0,-999.0,-999,0.00,,,0.16,,2013-02-25 20:30:00,
2013-02-25 16:02:00,34.0,-99.9,-100.00,North,-999,-999.0,-999.0,-999,0.00,,,0.16,,2013-02-25 21:02:00,
2013-02-25 16:22:00,34.0,-99.9,-100.00,North,-999,-999.0,-999.0,-999,0.00,,,0.16,,2013-02-25 21:22:00,
2013-02-25 16:30:00,34.0,-99.9,-100.00,North,-999,-999.0,-999.0,-999,0.00,,,0.16,,2013-02-25 21:30:00,
2013-02-25 17:02:00,34.0,-99.9,-100.00,North,-999,-999.0,-999.0,-999,0.00,,,0.16,,2013-02-25 22:02:00,
2013-02-25 17:11:00,34.0,-99.9,-100.00,North,-999,-999.0,-999.0,-999,0.00,,,0.16,,2013-02-25 22:11:00,
2013-02-25 17:22:00,34.0,-99.9,-100.00,North,-999,-999.0,-999.0,-999,0.00,,,0.16,,2013-02-25 22:22:00,
2013-02-25 17:30:00,34.0,-99.9,-100.00,North,-999,-999.0,-999.0,-999,0.00,,,0.16,,2013-02-25 22:30:00,
2013-02-25 18:01:00,34.0,-99.9,-100.00,North,-999,-999.0,-999.0,-999,0.00,,,0.16,,2013-02-25 23:01:00,
2013-02-25 18:11:00,34.0,-99.9,-100.00,North,-999,-999.0,-999.0,-999,0.00,,,0.16,,2013-02-25 23:11:00,
2013-02-25 18:22:00,34.0,-99.9,-100.00,North,-999,-999.0,-999.0,-999,0.00,,,0.16,,2013-02-25 23:22:00,
2013-02-25 18:30:00,33.0,-99.9,-100.00,North,-999,-999.0,-999.0,-999,0.00,,,0.15,,2013-02-25 23:30:00,
2013-02-25 19:02:00,33.0,-99.9,-100.00,North,-999,-999.0,-999.0,-999,0.00,,,0.15,,2013-02-26 00:02:00,
2013-02-25 19:12:00,33.0,-99.9,-100.00,North,-999,-999.0,-999.0,-999,0.00,,,0.15,,2013-02-26 00:12:00,
2013-02-25 19:22:00,33.0,-99.9,-100.00,North,-999,-999.0,-999.0,-999,0.00,,,0.15,,2013-02-26 00:22:00,
2013-02-25 19:30:00,33.0,-99.9,-100.00,North,-999,-999.0,-999.0,-999,0.00,,,0.14,,2013-02-26 00:30:00,
2013-02-25 20:02:00,33.0,-99.9,-100.00,North,-999,-999.0,-999.0,-999,0.00,,,0.14,,2013-02-26 01:02:00,
2013-02-25 20:12:00,33.0,-99.9,-100.00,North,-999,-999.0,-999.0,-999,0.00,,,0.14,,2013-02-26 01:12:00,
2013-02-25 20:30:00,32.0,-99.9,-100.00,North,-999,-999.0,-999.0,-999,0.00,,,0.10,,2013-02-26 01:30:00,
2013-02-25 21:02:00,32.0,-99.9,-100.00,North,-999,-999.0,-999.0,-999,0.00,,,0.10,,2013-02-26 02:02:00,
2013-02-25 21:22:00,32.0,-99.9,-100.00,North,-999,-999.0,-999.0,-999,0.00,,,0.10,,2013-02-26 02:22:00,
2013-02-25 21:30:00,32.0,-99.9,-100.00,North,-999,-999.0,-999.0,-999,0.00,,,0.07,,2013-02-26 02:30:00,
2013-02-25 22:02:00,32.0,-99.9,-100.00,North,-999,-999.0,-999.0,-999,0.00,,,0.07,,2013-02-26 03:02:00,
2013-02-25 22:12:00,32.0,-99.9,-100.00,North,-999,-999.0,-999.0,-999,0.00,,,0.07,,2013-02-26 03:12:00,
2013-02-25 22:22:00,32.0,-99.9,-100.00,North,-999,-999.0,-999.0,-999,0.00,,,0.07,,2013-02-26 03:22:00,
2013-02-25 22:30:00,32.0,-99.9,-100.00,North,-999,-999.0,-999.0,-999,0.00,,,0.04,,2013-02-26 03:30:00,
2013-02-25 23:02:00,32.0,-99.9,-100.00,North,-999,-999.0,-999.0,-999,0.00,,,0.04,,2013-02-26 04:02:00,
2013-02-25 23:12:00,32.0,-99.9,-100.00,North,-999,-999.0,-999.0,-999,0.00,,,0.04,,2013-02-26 04:12:00,
2013-02-25 23:30:00,32.0,-99.9,-100.00,North,-999,-999.0,-999.0,-999,0.00,,,0.02,,2013-02-26 04:30:00,